Location: Assche-ter-Heiden
(50.9174°N, 4.1574°E)
Time: 01:28:18
(UTC+00:00)

Cosmos 2263 Rocket - Pass Details

Date: 20 January 2020
Orbit: 822 x 849 km, 71.0° (Epoch: 28 February)

Event Time Altitude Azimuth Distance (km) Brightness Sun altitude
Exits shadow 04:07:08 22° 9° (N) 1,765 4.0 -32.3°
Maximum altitude 04:09:08 27° 42° (NE) 1,573 3.9 -32.0°
Drops below altitude 10° 04:13:52 10° 99° (E) 2,462 5.4 -31.3°
Sets 04:16:42 0° 111° (ESE) 3,398 6.2 -30.8°
